Regional Weather Roundup
Issued by NWS

Home | Current Version | Previous Version | Text Only | Print | Product List | Glossary Off
Versions: 1 2 3 4 5 6 7 8 9 10 11 12 13 14 15 16 17 18 19 20 21 22 23 24 25 26 27 28 29 30 31 32 33 34 35 36 37 38 39 40 41 42 43 44 45 46 47 48 49 50

000
ASUS45 KCYS 211810
RWRWY

WYOMING REGIONAL WEATHER ROUNDUP
NATIONAL WEATHER SERVICE CHEYENNE WY
1200 PM MDT SAT APR 21 2018

NOTE:  "FAIR" INDICATES FEW OR NO CLOUDS BELOW 12,000 FEET
WITH NO SIGNIFICANT WEATHER AND/OR OBSTRUCTIONS TO VISIBILITY.

WYZ001-211900-
YELLOWSTONE NATIONAL PARK

CITY           SKY/WX    TMP DP  RH WIND       PRES   REMARKS
LK YELLOWSTONE   N/A     41  23  48 VRB3      30.23F
6HR MIN TEMP:  18; 6HR MAX TEMP:  41;

W YELLOWSTONE  NOT AVBL

$$
WYZ002>013-054>058-071-098>099-211900-
NORTHERN WYOMING

CITY           SKY/WX    TMP DP  RH WIND       PRES   REMARKS
JACKSON        FAIR      52  27  38 VRB5      30.20S
CODY           FAIR      63  27  25 N7        30.08F
GREYBULL         N/A    N/A N/A N/A MISG      30.06F
WORLAND        FAIR      60  35  39 VRB3      30.06F
6HR MIN TEMP:  34; 6HR MAX TEMP:  60;

SHERIDAN       FAIR      62  39  42 CALM      30.05F
6HR MIN TEMP:  29; 6HR MAX TEMP:  62;

BUFFALO        FAIR      58  36  43 VRB6      30.09F
6HR MIN TEMP:  32; 6HR MAX TEMP:  58;

GILLETTE       FAIR      48  36  63 S17       30.13R
6HR MIN TEMP:  38; 6HR MAX TEMP:  48;

HULETT         FAIR      50  34  53 MISG      30.15F
NEWCASTLE      CLOUDY    43  32  65 S13       30.19F

$$
WYZ014>020-022>026-101>103-211900-
CENTRAL WYOMING

CITY           SKY/WX    TMP DP  RH WIND       PRES   REMARKS
BIG PINEY      FAIR      54  27  35 VRB3      30.18F
6HR MIN TEMP:  18; 6HR MAX TEMP:  54;

PINEDALE       FAIR      54  19  26 NW13G22   30.17F
DUBOIS         FAIR      55  14  19 NW16G23   30.14S
LANDER         FAIR      57  34  41 VRB5      30.09F
6HR MIN TEMP:  30; 6HR MAX TEMP:  57;

RIVERTON       FAIR      55  34  45 CALM      30.11F
6HR MIN TEMP:  28; 6HR MAX TEMP:  55;

CASPER         FAIR      50  38  63 VRB6      30.12F
6HR MIN TEMP:  35; 6HR MAX TEMP:  50;

DOUGLAS        CLOUDY    44  36  73 VRB3      30.15F
6HR MIN TEMP:  34; 6HR MAX TEMP:  45;


$$
WYZ021-027>030-104>119-211900-
SOUTHERN WYOMING

CITY           SKY/WX    TMP DP  RH WIND       PRES   REMARKS
EVANSTON       FAIR      57  23  26 NW12      30.22S
6HR MIN TEMP:  35; 6HR MAX TEMP:  57;

KEMMERER       FAIR      55  19  24 NW21G28   30.21S
FORT BRIDGER   FAIR      59  23  25 NW16G23   30.23F
ROCK SPRINGS   FAIR      53  31  42 VRB7G18   30.18S
6HR MIN TEMP:  32; 6HR MAX TEMP:  53;

DIXON          CLOUDY    43  32  64 SW6       30.22S
RAWLINS          N/A    N/A N/A N/A MISG      30.16S
SARATOGA       CLOUDY    37  36  93 SW5       30.19S WCI  34
LARAMIE        CLOUDY    30  29  96 S3        30.15F
6HR MIN TEMP:  23; 6HR MAX TEMP:  31; 6HR PCP:  0.01;

CHEYENNE       CLOUDY    37  33  85 VRB7      30.17S WCI  32
6HR MIN TEMP:  30; 6HR MAX TEMP:  37; 6HR PCP:  0.16;

TORRINGTON     CLOUDY    38  37  97 SE5       30.19F WCI  34
6HR MIN TEMP:  33; 6HR MAX TEMP:  38; 6HR PCP:  0.09;

PINE BLUFFS    CLOUDY    36  34  93 MISG      30.19F

$$



USA.gov is the U.S. government's official web portal to all federal, state and local government web resources and services.